EHI
0 0 0 0 0 0 0 0 0 0 0 0 0 0 0 0 0 0 0 0 0 0 0 0 0 0 0 0 0 0 0 0 0 0 0 0 0 0 0 0 0 0 0 0
0 0 0 0 0 0 0 0 0 0 0 0 0 0 0 0 0 0 0 0 0 0 0 0 0 0 0 0 0 0 0 0 0 0 0 0 0 0 0 0 0 0 0 0
0 0 0 0 0 0 0 0 0 0 0 0 0 0 0 0 0 0 0 0 0 0 0 0 0 0 0 0 0 0 0 0 0 0 0 0 0 0 0 0 0 0 0 0
0 0 0 0 0 0 0 0 0 0 0 0 0 0 0 0 0 0 0 0 0 0 0 0 0 0 0 0 0 0 0 0 0 0 0 0 0 0 0 0 0 0 0 0
0 0 0 0 0 0 0 0 0 0 0 0 0 0 0 0 0 0 0 0 0 0 0 0 0 0 0 0 0 0 0 0 0 0 0 0 0 0 0 0 0 0 0 0
0 0 0 0 0 0 0 0 0 0 0 0 0 0 0 0 0 0 0 0 0 0 0 0 0 0 0 0 0 0 0 0 0 0 0 0 0 0 0 0 0 0 0 0
0 0 0 0 0 0 0 0 0 0 0 0 0 0 0 0 0 0 0 0 0 0 0 0 0 0 0 0 0 0 0 0 0 0 0 0 0 0 0 0 0 0 0 0
0 0 0 0 0 0 0 0 0 0 0 0 0 0 0 0 0 0 0 0 0 0 0 0 0 0 0 0 0 0 0 0 0 0 0 0 0 0 0 0 0 0 0 0
0 0 0 0 0 0 0 0 0 0 0 0 0 0 0 0 0 0 0 0 0 0 0 0 0 0 0 0 0 0 0 0 0 0 0 0 0 0 0 0 0 0 0 0
0 0 0 0 0 0 0 0 0 0 0 0 0 0 0 0 0 0 0 0 0 0 0 0 0 0 0 0 0 0 0 0 0 0 0 0 0 0 0 0 0 0 0 0
0 0 0 0 0 0 0 0 0 0 0 0 0 0 0 0 0 0 0 0 0 0 0 0 0 0 0 0 0 0 0 0 0 0 0 0 0 0 0 0 0 0 0 0
0 0 0 0 0 0 0 0 0 0 0 0 0 0 0 0 0 0 0 0 0 0 0 0 0 0 0 0 0 0 0 0 0 0 0 0 0 0 0 0 0 0 0 0
0 0 0 0 0 0 0 0 0 0 0 0 0 0 0 0 0 0 0 0 0 0 0 0 0 0 0 0 0 0 0 0 0 0 0 0 0 0 0 0 0 0 0 0
0 0 0 0 0 0 0 0 0 0 0 0 0 0 0 0 0 0 0 0 0 0 0 0 0 0 0 0 0 0 0 0 0 0 0 0 0 0 0 0 0 0 0 0
0 0 0 0 0 0 0 0 0 0 0 0 0 0 0 0 0 0 0 0 0 0 0 0 0 0 0 0 0 0 0 0 0 0 0 0 0 0 0 0 0 0 0 0
0 0 0 0 0 0 0 0 0 0 0 0 0 0 0 0 0 0 0 0 0 0 0 0 0 0 0 0 0 0 0 0 0 0 0 0 0 0 0 0 0 0 0 0
0 0 0 0 0 0 0 0 0 0 0 0 0 0 0 0 0 0 0 0 0 0 0 0 0 0 0 0 0 0 0 0 0 0 0 0 0 0 0 0 0 0 0 0
0 0 0 0 0 0 0 0 0 0 0 0 0 0 0 0 0 0 0 0 0 0 0 0 0 0 0 0 0 0 0 0 0 0 0 0 0 0 0 0 0 0 0 0
0 0 0 0 0 0 0 0 0 0 0 0 0 0 0 0 0 0 0 0 0 0 0 0 0 0 0 0 0 0 0 0 0 0 0 0 0 0 0 0 0 0 0 0
0 0 0 0 0 0 0 0 0 0 0 0 0 0 0 0 0 0 0 0 0 0 0 0 0 0 0 0 0 0 0 0 0 0 0 0 0 0 0 0 0 0 0 0
0 0 0 0 0 0 0 0 0 0 0 0 0 0 0 0 0 0 0 0 0 0 0 0 0 0 0 0 0 0 0 0 0 0 0 0 0 0 0 0 0 0 0 0
0 0 0 0 0 0 0 0 0 0 0 0 0 0 0 0 0 0 0 0 0 0 0 0 0 0 0 0 0 0 0 0 0 0 0 0 0 0 0 0 0 0 0 0
0 0 0 0 0 0 0 0 0 0 0 0 0 0 0 0 0 0 0 0 0 0 0 0 0 0 0 0 0 0 0 0 0 0 0 0 0 0 0 0 0 0 0 0
0 0 0 0 0 0 0 0 0 0 0 0 0 0 0 0 0 0 0 0 0 0 0 0 0 0 0 0 0 0 0 0 0 0 0 0 0 0 0 0 0 0 0 0
0 0 0 0 0 0 0 0 0 0 0 0 0 0 0 0 0 0 0 0 0 0 0 0 0 0 0 0 0 0 0 0 0 0 0 0 0 0 0 0 0 0 0 0
0 0 0 0 0 0 0 0 0 0 0 0 0 0 0 0 0 0 0 0 0 0 0 0 0 0 0 0 0 0 0 0 0 0 0 0 0 0 0 0 0 0 0 0
Wind_Speed
4 6 3 1 1 2 4 3 1 2 2 2 1 3 5 2 2 3 3 3 3 4 2 1 2 2 2 2 2 2 2 1 2 1 1 0 0 1 1 1 1 2 1 2
6 4 3 1 2 4 3 3 1 2 3 2 2 4 5 2 3 4 5 5 4 3 1 1 1 2 2 2 2 2 2 2 2 2 1 1 1 0 0 1 1 1 1 1
5 2 2 3 4 5 4 2 1 0 2 3 2 6 3 2 1 1 2 3 3 4 4 3 3 3 2 3 3 3 2 2 2 2 1 1 1 1 1 1 1 1 1 1
3 3 2 4 4 2 1 1 1 1 2 3 3 3 6 3 3 2 2 2 3 3 3 3 3 3 3 4 2 2 2 2 2 3 2 2 2 2 2 1 1 1 1 1
2 3 4 4 2 1 1 1 2 2 2 2 2 1 8 3 3 3 3 2 2 2 3 3 3 3 3 2 2 2 1 2 2 3 3 3 2 2 2 1 2 2 1 1
1 1 1 0 1 1 1 3 4 4 4 1 1 2 7 4 4 2 2 2 1 1 1 1 0 1 0 0 0 1 1 2 2 2 3 4 4 3 3 3 2 2 1 2
4 3 3 1 2 4 4 5 5 5 4 4 1 2 9 5 4 3 3 3 1 1 2 1 1 0 0 0 0 0 1 2 1 2 3 4 4 4 4 4 3 3 2 2
2 3 3 3 1 1 1 3 5 3 4 4 2 5 7 3 3 2 2 2 1 1 1 1 1 1 0 1 1 0 1 2 1 1 3 3 3 3 3 4 3 3 3 3
2 2 2 1 1 2 2 2 2 5 1 2 5 7 8 1 1 1 1 2 1 1 1 0 1 0 0 1 1 1 1 1 2 2 2 2 2 3 3 3 3 3 3 3
3 1 3 3 2 3 2 4 3 3 2 3 6 5 5 3 3 2 2 2 2 1 0 0 1 1 1 1 1 1 1 1 2 2 1 1 2 2 3 3 4 3 3 3
2 2 3 2 1 2 2 2 3 3 2 3 4 8 5 5 4 5 4 3 3 2 1 1 0 1 1 1 1 1 1 1 2 2 1 2 2 2 2 3 3 3 3 3
2 4 1 3 2 1 2 3 5 3 3 3 3 9 3 3 4 4 4 3 2 2 1 1 0 1 1 2 2 2 2 2 2 2 1 2 2 2 2 3 3 3 3 3
3 3 2 4 2 1 1 2 3 3 3 4 4 9 4 1 0 2 3 3 2 2 1 1 0 0 1 2 2 2 3 3 3 2 2 2 2 2 3 3 4 3 3 3
4 3 5 6 4 3 3 3 4 5 4 5 9 9 6 3 3 3 3 3 2 2 2 1 1 1 2 2 2 3 3 3 3 2 2 2 3 3 3 3 3 3 3 3
3 2 3 5 4 3 5 6 7 9 8 9 8 8 9 6 6 5 3 2 2 2 2 2 2 2 2 2 3 3 3 3 2 2 3 3 3 3 3 3 3 3 3 4
2 2 1 3 2 3 7 10 10 11 9 10 8 12 8 5 3 3 4 3 3 3 3 3 3 3 3 3 3 3 3 3 2 2 4 4 3 3 3 4 4 4 4 4
2 3 1 4 4 5 9 10 11 7 8 8 11 11 3 3 5 6 5 5 5 5 4 4 4 4 4 4 3 3 3 3 2 3 4 4 3 4 4 4 4 4 4 4
6 4 2 2 3 7 7 1 6 6 7 9 7 5 4 5 4 3 4 5 5 4 4 4 4 4 3 3 3 3 2 2 3 3 4 4 4 4 4 4 4 4 4 4
4 6 3 1 3 10 9 3 5 5 6 7 9 7 4 1 2 3 3 4 5 4 4 4 4 3 3 3 3 2 2 3 3 4 5 4 4 4 4 5 5 4 4 5
2 3 3 3 4 8 5 1 3 2 5 4 6 5 3 4 1 5 2 2 3 3 3 3 2 2 3 3 2 2 3 3 5 5 5 5 4 4 5 5 5 4 4 5
4 3 5 6 7 11 7 2 3 3 6 2 4 4 5 6 6 3 1 2 2 3 3 2 2 2 3 3 2 3 4 5 6 5 5 5 4 5 5 5 4 4 5 5
9 8 8 6 7 12 4 6 7 7 2 1 3 3 4 5 3 2 2 3 3 2 2 2 2 3 3 2 2 4 6 6 4 4 5 5 5 5 4 4 5 4 4 5
9 10 8 11 10 4 4 6 4 2 3 3 3 3 4 4 4 4 3 4 3 3 3 2 3 4 4 3 3 5 6 5 4 4 5 5 5 5 4 4 5 5 4 4
5 3 4 6 9 7 6 6 5 4 5 4 4 4 4 5 5 4 4 4 3 3 3 3 3 4 5 4 4 6 6 4 4 5 6 5 5 5 5 4 4 4 5 5
6 6 5 8 8 6 6 7 7 6 5 5 4 4 5 5 5 5 5 5 4 4 3 3 4 5 7 6 6 6 5 4 5 6 6 6 5 5 5 5 5 6 7 7
8 9 9 10 8 6 6 4 5 5 6 6 6 5 4 5 6 5 5 5 4 4 4 4 5 6 6 6 7 6 5 4 5 6 6 5 5 5 5 6 7 10 11 15
Wind_Direction
19 60 51 336 114 140 136 117 79 315 330 54 25 297 289 278 213 230 235 229 220 233 250 200 174 156 140 145 156 161 154 161 125 106 118 107 319 321 5 3 6 11 13 49
44 38 321 324 75 80 86 91 58 347 12 50 3 303 286 260 227 219 222 229 222 221 233 212 178 171 180 190 191 187 196 187 162 153 158 155 153 251 259 322 353 356 1 13
96 299 318 80 65 68 40 113 159 236 353 33 1 325 314 306 292 255 238 230 226 211 212 212 210 210 208 215 208 209 210 202 184 164 125 102 57 3 342 325 311 319 325 345
50 343 47 71 46 68 41 329 130 72 59 346 39 303 298 308 310 286 267 246 232 225 215 209 209 217 222 230 223 221 211 210 199 171 168 178 196 228 242 243 261 295 303 279
14 2 42 57 5 75 166 20 62 56 93 18 19 151 286 319 287 278 272 255 240 226 215 217 216 219 223 215 213 221 226 236 218 189 186 193 219 227 247 257 274 281 281 277
16 355 49 98 343 86 147 53 48 46 63 347 260 174 277 254 239 270 271 255 231 202 178 196 205 177 188 137 212 235 247 264 243 206 197 203 217 231 249 261 264 273 272 270
6 1 2 16 42 20 55 72 32 7 7 261 277 214 252 260 260 240 230 228 216 154 130 124 122 147 62 359 299 264 255 274 262 216 214 216 217 220 234 246 248 258 265 260
65 325 339 6 82 137 54 113 144 192 233 283 312 245 258 275 289 261 222 199 166 152 146 157 185 198 260 310 319 301 271 280 290 249 239 230 222 218 234 239 239 245 244 250
130 261 323 349 344 120 99 98 148 128 152 289 282 286 301 295 336 69 118 131 171 188 173 120 33 36 301 314 285 265 273 297 305 282 256 245 236 229 243 251 243 247 246 250
134 156 313 320 59 42 100 141 96 114 147 280 297 280 258 251 231 218 192 188 208 199 151 27 29 4 340 296 285 321 286 281 295 296 270 265 253 241 243 244 246 249 251 248
104 127 319 360 168 181 110 102 105 108 151 170 277 276 234 218 210 207 218 217 210 203 206 211 327 345 346 348 357 356 340 325 313 311 314 301 289 277 260 250 253 252 251 245
106 114 263 264 257 195 188 177 152 155 222 187 220 270 289 236 228 211 218 227 223 207 200 195 193 17 6 350 337 327 318 307 298 303 307 293 291 294 281 274 271 261 256 251
136 107 31 349 344 359 257 202 174 135 128 172 201 266 315 352 250 224 222 231 228 216 197 178 117 337 316 313 315 312 305 296 300 306 305 302 299 295 285 281 278 268 260 262
112 134 178 209 233 200 239 223 182 156 180 218 229 256 290 287 265 255 244 239 223 217 207 207 234 259 278 290 293 296 296 294 301 306 300 290 284 278 277 282 281 275 266 263
108 189 237 253 263 236 239 234 206 205 206 213 238 239 255 246 241 242 234 224 210 223 224 227 242 256 272 283 288 290 291 295 294 293 285 276 280 283 285 287 286 286 278 268
106 165 292 292 287 262 262 246 226 227 227 236 257 267 252 242 226 233 226 211 213 228 236 245 250 251 260 267 274 285 289 293 290 278 274 277 282 287 286 286 289 290 285 278
148 145 139 281 312 326 270 237 208 209 210 199 227 245 244 223 226 227 223 212 216 230 241 248 248 247 252 253 252 262 274 288 290 282 283 284 284 285 284 286 290 284 281 277
148 142 156 293 353 254 248 211 185 207 237 218 234 249 233 229 241 242 215 205 223 233 239 245 245 249 252 250 257 265 275 282 285 284 284 284 281 282 285 285 280 278 276 274
159 150 155 175 267 278 290 245 176 192 266 220 222 242 242 226 9 301 231 203 216 224 230 236 239 239 245 256 258 268 280 283 281 279 279 280 278 280 284 282 280 278 276 278
84 127 155 178 229 252 257 211 169 129 283 242 199 213 191 132 182 266 244 210 232 242 243 243 247 248 257 267 261 261 273 277 272 272 275 279 276 272 273 274 277 275 270 272
144 169 197 208 239 264 256 207 130 185 254 232 186 190 173 188 213 241 233 236 234 241 251 255 256 256 257 259 247 261 269 266 266 273 280 282 275 269 269 273 271 275 278 282
178 178 193 184 216 253 215 148 186 219 241 180 189 191 196 221 245 253 242 247 254 260 264 258 260 271 271 254 242 263 268 268 274 278 280 280 277 274 275 271 276 272 269 278
202 195 189 198 218 244 187 204 222 195 207 214 208 220 209 226 244 248 251 253 259 258 262 259 256 275 281 264 240 257 270 277 281 281 279 281 281 276 268 263 271 277 267 267
238 199 202 247 260 256 249 245 244 219 221 230 224 222 206 223 239 247 254 257 261 262 260 258 263 272 278 275 262 257 270 275 273 275 279 279 279 282 276 263 255 259 263 264
219 178 214 251 267 283 262 234 232 231 227 232 232 221 216 218 234 237 246 252 253 259 262 253 253 261 269 275 275 273 269 266 269 272 274 275 270 270 275 269 255 254 249 246
196 192 200 236 232 218 249 240 219 217 228 226 225 234 227 215 228 235 241 246 249 255 258 261 260 262 269 272 274 275 268 254 259 273 273 270 270 270 269 275 283 263 257 266